Location: Newark
(43.0000°N, 1.6781°W)
Time: 12:50:25
(UTC+00:00)

M-CUBED/EXP-1 PRIME - Visible Passes

Search period start: 08 December 2022 00:00
Search period end: 18 December 2022 00:00
Orbit: 418 x 615 km, 101.7° (Epoch: 08 December)

Date Brightness Start Highest point End Pass type
(mag) Time Alt. Az. Time Alt. Az. Time Alt. Az.
08 Dec ? 05:59:41 10° ESE 06:02:33 18° ENE 06:05:30 10° NNE visible
09 Dec ? 05:46:22 10° E 05:48:21 13° NE 05:50:21 10° NNE visible
11 Dec ? 06:48:27 10° SE 06:52:28 48° ENE 06:56:38 10° N visible
12 Dec ? 06:34:18 10° SE 06:38:03 33° ENE 06:41:55 10° N visible
13 Dec ? 06:20:18 10° ESE 06:23:39 23° ENE 06:27:02 10° N visible
14 Dec ? 06:06:34 10° E 06:09:14 16° ENE 06:11:55 10° NNE visible
15 Dec ? 05:53:22 10° ENE 05:54:49 12° NE 05:56:16 10° NE visible
17 Dec ? 06:54:28 10° SE 06:58:28 41° ENE 07:02:31 10° N visible
